Location: Unspecified
(0.0000°N, 0.0000°E)
Time: 19:59:37
(UTC+01:00)

ATLAS 2AS CENTAUR R/B - Visible Passes

Search period start: 14 February 2016 00:00
Search period end: 24 February 2016 00:00
Orbit: 908 x 1304 km, 63.7° (Epoch: 13 February)

Date Brightness Start Highest point End Pass type
(mag) Time Alt. Az. Time Alt. Az. Time Alt. Az.
14 Feb 2.6 05:43:20 10° SSW 05:49:53 76° WNW 05:57:08 10° NNE visible
15 Feb 3.1 04:58:48 10° S 05:05:14 59° ESE 05:12:16 10° NE visible
16 Feb 4.2 04:19:30 29° SE 04:20:35 31° ESE 04:26:39 10° NE visible
16 Feb 3.5 06:07:20 17° WSW 06:11:14 28° WNW 06:17:14 10° N visible
17 Feb 2.9 05:27:33 48° NW 05:27:33 48° NW 05:33:27 10° N visible
18 Feb 4.3 04:46:26 23° NNE 04:46:26 23° NNE 04:48:56 10° NNE visible
19 Feb 4.7 05:52:17 11° NNW 05:52:17 11° NNW 05:52:41 10° NNW visible
